KF5DKO Weather Reports


time (UTC)temp
F
wind
direction
speed
knots
gust
knots
rain 1hr
in
rain 24hr
in
rain mn
in
humidity
%
barometer
mb
20260505040558 59 148 0.0 0.9 0.00 0.00 0.00 93 1012.4
20260505040057 59 148 0.0 0.9 0.00 0.00 0.00 92 1012.4
20260505035557 60 148 0.0 0.0 0.00 0.00 0.00 92 1012.6
20260505035056 60 148 0.0 0.0 0.00 0.00 0.00 92 1012.6
20260505034556 60 148 0.0 0.0 0.00 0.00 0.00 92 1012.6
20260505034057 60 148 0.0 0.0 0.00 0.00 0.00 91 1012.6
20260505033556 60 148 0.0 0.0 0.00 0.00 0.00 91 1012.6
20260505033056 60 148 0.0 0.0 0.00 0.00 0.00 91 1012.6
20260505032556 60 148 0.0 0.0 0.00 0.00 0.00 91 1012.6
20260505032056 61 148 0.0 0.9 0.00 0.00 0.00 90 1012.6
20260505031559 61 148 0.0 1.7 0.00 0.00 0.00 90 1012.6
20260505031056 61 148 0.0 1.7 0.00 0.00 0.00 90 1012.3
20260505030559 61 148 0.0 1.7 0.00 0.00 0.00 90 1012.3
20260505030055 61 148 0.0 0.9 0.00 0.00 0.00 89 1012.3
20260505025555 61 148 0.0 2.6 0.00 0.00 0.00 89 1012.5
20260505025054 61 148 0.0 2.6 0.00 0.00 0.00 89 1012.5
20260505024556 61 148 0.0 1.7 0.00 0.00 0.00 88 1012.5
20260505024055 61 148 0.0 1.7 0.00 0.00 0.00 88 1012.6
20260505023555 62 148 0.0 2.6 0.00 0.00 0.00 88 1012.6
20260505023056 62 148 0.9 2.6 0.00 0.00 0.00 88 1012.6
20260505022555 62 148 0.0 2.6 0.00 0.00 0.00 87 1012.5
20260505022054 62 148 0.0 2.6 0.00 0.00 0.00 87 1012.5
20260505021554 62 148 0.0 1.7 0.00 0.00 0.00 86 1012.5
20260505021058 63 148 0.0 1.7 0.00 0.00 0.00 86 1012.2
20260505020554 63 148 0.0 1.7 0.00 0.00 0.00 85 1012.2
20260505015555 64 148 0.0 2.6 0.00 0.00 0.00 83 1012.2
20260505015056 64 148 0.0 2.6 0.00 0.00 0.00 82 1012.2
20260505014555 64 148 0.9 3.5 0.00 0.00 0.00 82 1012.2
20260505014055 65 148 0.9 3.5 0.00 0.00 0.00 81 1012.0
20260505013554 65 148 0.9 3.5 0.00 0.00 0.00 81 1012.0
20260505013103 65 148 0.9 3.5 0.00 0.00 0.00 80 1012.0
20260505012554 66 148 0.0 3.5 0.00 0.00 0.00 79 1011.8
20260505012054 66 148 0.9 3.5 0.00 0.00 0.00 78 1011.8
20260505011554 67 148 0.0 1.7 0.00 0.00 0.00 77 1011.8
20260505011054 68 148 0.0 1.7 0.00 0.00 0.00 75 1011.9
20260505010555 68 148 0.0 1.7 0.00 0.00 0.00 74 1011.9
20260505010109 69 148 0.0 3.5 0.00 0.00 0.00 71 1011.9
20260505005551 69 148 0.9 5.2 0.00 0.00 0.00 70 1012.1
20260505005051 69 148 0.9 5.2 0.00 0.00 0.00 69 1012.1
20260505004551 70 144 0.9 4.3 0.00 0.00 0.00 68 1012.1
20260505004050 70 147 1.7 4.3 0.00 0.00 0.00 68 1012.2
20260505003551 70 150 0.0 4.3 0.00 0.00 0.00 67 1012.2
20260505003055 71 145 0.9 7.0 0.00 0.00 0.00 67 1012.2
20260505002550 71 138 2.6 7.0 0.00 0.00 0.00 65 1012.3
20260505002050 72 144 1.7 5.2 0.00 0.00 0.00 65 1012.3
20260505001550 72 151 0.9 7.0 0.00 0.00 0.00 64 1012.3
20260505001049 72 150 2.6 7.0 0.00 0.00 0.00 64 1012.4
20260505000554 73 151 1.7 6.1 0.00 0.00 0.00 62 1012.4
20260505000049 73 158 1.7 5.2 0.00 0.00 0.00 61 1012.4
20260504235549 74 165 1.7 6.1 0.00 0.00 0.00 60 1012.3
20260504235049 74 185 2.6 6.1 0.00 0.00 0.00 59 1012.3
20260504234548 74 171 1.7 5.2 0.00 0.00 0.00 59 1012.3
20260504234048 74 196 1.7 5.2 0.00 0.00 0.00 58 1012.5
20260504233548 75 153 1.7 6.1 0.00 0.00 0.00 59 1012.5
20260504233104 74 218 4.3 6.1 0.00 0.00 0.00 58 1012.5
20260504232548 74 180 3.5 7.8 0.00 0.00 0.00 57 1012.7
20260504232047 74 165 3.5 7.8 0.00 0.00 0.00 56 1012.7
20260504231549 75 202 4.3 8.7 0.00 0.00 0.00 56 1012.7
20260504231048 75 182 2.6 8.7 0.00 0.00 0.00 57 1012.8
20260504230548 75 163 2.6 8.7 0.00 0.00 0.00 56 1012.8
20260504230054 75 187 4.3 7.0 0.00 0.00 0.00 56 1012.8
20260504225545 76 168 3.5 7.0 0.00 0.00 0.00 55 1012.8
20260504225045 76 186 3.5 8.7 0.00 0.00 0.00 54 1012.8
20260504224550 76 202 1.7 8.7 0.00 0.00 0.00 56 1012.8
20260504224045 76 188 3.5 8.7 0.00 0.00 0.00 52 1013.1
20260504223545 77 185 2.6 8.7 0.00 0.00 0.00 51 1013.1
20260504223045 77 198 3.5 6.1 0.00 0.00 0.00 52 1013.1
20260504222545 77 240 1.7 6.1 0.00 0.00 0.00 53 1013.1
20260504222047 77 232 2.6 9.6 0.00 0.00 0.00 51 1013.1
20260504221544 77 198 4.3 9.6 0.00 0.00 0.00 51 1013.1
20260504221044 78 246 2.6 7.8 0.00 0.00 0.00 50 1013.3
20260504220545 78 185 3.5 7.8 0.00 0.00 0.00 50 1013.3
20260504220043 77 157 3.5 8.7 0.00 0.00 0.00 50 1013.3
20260504215547 77 221 2.6 8.7 0.00 0.00 0.00 50 1013.3
20260504215042 77 185 2.6 7.0 0.00 0.00 0.00 49 1013.3
20260504214545 78 137 2.6 9.6 0.00 0.00 0.00 49 1013.3
20260504214045 78 184 1.7 9.6 0.00 0.00 0.00 52 1013.4
20260504213545 77 228 2.6 6.1 0.00 0.00 0.00 50 1013.4
20260504213042 77 194 0.9 7.0 0.00 0.00 0.00 47 1013.4
20260504212542 77 194 1.7 7.0 0.00 0.00 0.00 49 1013.5
20260504212045 77 158 3.5 9.6 0.00 0.00 0.00 51 1013.5
20260504211541 77 132 2.6 9.6 0.00 0.00 0.00 51 1013.5
20260504211041 77 211 1.7 7.8 0.00 0.00 0.00 51 1013.7
20260504210545 77 129 4.3 7.8 0.00 0.00 0.00 49 1013.7
20260504210044 77 189 3.5 8.7 0.00 0.00 0.00 47 1013.7
20260504205540 77 146 3.5 8.7 0.00 0.00 0.00 48 1013.9
20260504205042 77 193 3.5 8.7 0.00 0.00 0.00 49 1013.9
20260504204547 78 146 3.5 7.0 0.00 0.00 0.00 46 1013.9
20260504204039 78 175 3.5 11.3 0.00 0.00 0.00 47 1013.9
20260504203540 78 209 2.6 7.8 0.00 0.00 0.00 47 1013.9
20260504203053 78 202 4.3 7.8 0.00 0.00 0.00 49 1013.9
20260504202539 78 205 4.3 7.8 0.00 0.00 0.00 47 1014.3
20260504202038 78 196 2.6 11.3 0.00 0.00 0.00 47 1014.3
20260504201537 78 194 4.3 11.3 0.00 0.00 0.00 47 1014.3
20260504201037 78 172 1.7 10.4 0.00 0.00 0.00 44 1014.5
20260504200537 78 146 4.3 10.4 0.00 0.00 0.00 47 1014.5
20260504200036 78 179 2.6 7.0 0.00 0.00 0.00 48 1014.5
20260504195535 78 215 2.6 7.0 0.00 0.00 0.00 44 1014.9
20260504195035 78 201 3.5 7.0 0.00 0.00 0.00 44 1014.9
20260504194536 78 138 4.3 10.4 0.00 0.00 0.00 46 1014.9
20260504194036 78 126 4.3 11.3 0.00 0.00 0.00 47 1015.1
20260504193535 78 161 5.2 11.3 0.00 0.00 0.00 48 1015.1
20260504193034 78 212 2.6 8.7 0.00 0.00 0.00 44 1015.1
20260504192532 78 204 2.6 12.2 0.00 0.00 0.00 46 1015.2
20260504192032 78 253 4.3 12.2 0.00 0.00 0.00 46 1015.2
20260504191532 78 198 1.7 8.7 0.00 0.00 0.00 50 1015.2
20260504191032 78 198 4.3 8.7 0.00 0.00 0.00 51 1015.3
20260504190531 77 184 2.6 8.7 0.00 0.00 0.00 55 1015.3
20260504190033 78 157 2.6 9.6 0.00 0.00 0.00 50 1015.3
20260504185532 77 169 3.5 9.6 0.00 0.00 0.00 49 1015.4
20260504185029 78 159 2.6 7.0 0.00 0.00 0.00 49 1015.4
20260504184533 78 209 0.0 6.1 0.00 0.00 0.00 51 1015.4
20260504184029 78 182 3.5 8.7 0.00 0.00 0.00 46 1015.4
20260504183529 78 227 4.3 8.7 0.00 0.00 0.00 48 1015.4
20260504183033 78 161 1.7 8.7 0.00 0.00 0.00 55 1015.4
20260504182531 78 196 2.6 8.7 0.00 0.00 0.00 51 1015.9
20260504182031 78 202 0.0 8.7 0.00 0.00 0.00 48 1015.9
20260504181527 78 202 3.5 8.7 0.00 0.00 0.00 48 1015.9
20260504181026 78 213 1.7 7.8 0.00 0.00 0.00 49 1016.0
20260504180529 78 250 3.5 8.7 0.00 0.00 0.00 48 1016.0
20260504180024 77 236 2.6 10.4 0.00 0.00 0.00 49 1016.0
20260504175523 77 198 4.3 10.4 0.00 0.00 0.00 51 1016.0
20260504175023 77 151 4.3 9.6 0.00 0.00 0.00 49 1016.0
20260504174523 77 167 5.2 9.6 0.00 0.00 0.00 51 1016.0
20260504174023 77 248 4.3 7.0 0.00 0.00 0.00 48 1016.2
20260504173522 77 177 2.6 10.4 0.00 0.00 0.00 49 1016.2
20260504173021 77 188 5.2 10.4 0.00 0.00 0.00 46 1016.2
20260504172521 77 207 2.6 8.7 0.00 0.00 0.00 50 1016.0
20260504172021 77 212 3.5 8.7 0.00 0.00 0.00 47 1016.0
20260504171520 77 244 4.3 9.6 0.00 0.00 0.00 49 1016.0
20260504171023 77 192 4.3 9.6 0.00 0.00 0.00 48 1016.2
20260504170518 76 203 1.7 9.6 0.00 0.00 0.00 51 1016.2
20260504151010 73 113 2.6 10.4 0.00 0.00 0.00 55 1016.6
20260504150504 73 123 5.2 11.3 0.00 0.00 0.00 52 1016.6
20260504141056 72 136 0.0 0.0 0.00 0.00 0.00 68 1016.9
20260504140555 71 133 0.0 0.0 0.00 0.00 0.00 74 1016.9
20260504130538 61 129 0.0 0.0 0.00 0.00 0.00 100 1016.9
20260504110523 52 129 0.0 0.0 0.00 0.00 0.00 98 1016.0
20260504100521 53 129 0.0 0.0 0.00 0.00 0.00 99 1016.0
20260504081514 52 129 0.0 0.0 0.00 0.00 0.00 97 1016.4
20260504081014 52 129 0.0 0.0 0.00 0.00 0.00 97 1016.5
20260504080514 52 129 0.0 0.0 0.00 0.00 0.00 97 1016.5
20260504060126 55 129 0.0 0.0 0.00 0.00 0.00 94 1017.5
20260504050555 56 129 0.0 0.0 0.00 0.00 0.00 91 1017.8
20260504050113 56 129 0.0 0.0 0.00 0.00 0.00 91 1017.8
20260504045553 56 129 0.0 0.0 0.00 0.00 0.00 91 1018.0
20260504045053 57 129 0.0 0.9 0.00 0.00 0.00 90 1018.0
20260504044554 57 129 0.0 0.9 0.00 0.00 0.00 89 1018.0
20260504044056 57 129 0.0 0.0 0.00 0.00 0.00 89 1018.0
20260504043554 57 129 0.0 0.0 0.00 0.00 0.00 89 1018.0
20260504043107 57 129 0.0 0.0 0.00 0.00 0.00 90 1018.0
20260504042554 57 129 0.0 0.0 0.00 0.00 0.00 90 1018.0
20260504042054 57 129 0.0 0.0 0.00 0.00 0.00 89 1018.0
20260504041553 57 129 0.0 0.0 0.00 0.00 0.00 89 1018.0
20260504041053 57 129 0.0 0.0 0.00 0.00 0.00 88 1018.0